Tracking 22879 objects as of 20-Apr-2021
HD Live streaming from Space Station
objects crossing your sky now

ONEWEB-0093

Track ONEWEB-0093 now!
10-day predictions
ONEWEB-0093 is classified as:


NORAD ID: 45444
Int'l Code: 2020-020W
Perigee: 1,225.3 km
Apogee: 1,228.5 km
Inclination: 87.9 °
Period: 109.8 minutes
Semi major axis: 7597 km
RCS: Unknown
Launch date: March 21, 2020
Source: United Kingdom (UK)
Launch site: TYURATAM MISSILE AND SPACE COMPLEX (TTMTR)
aabbcc
Your satellite tracking list
Your tracking list is empty




NASA's NSSDC Master Catalog

Two Line Element Set (TLE):
1 45444U 20020W   21110.30439798  .00000338  00000-0  92390-3 0  9993
2 45444  87.8947  35.6045 0002127  78.4289 281.7077 13.10886256 55764
Source of the keplerian elements: AFSPC